GFSFLT1_500_rhum_045.txt.gz
RH
3 2 2 2 2 2 2 2 2 2 3 3 4 6 9 10 11 13 13 14 15 17 18 20 22 25 30 32 32 34 33 32 31
2 2 2 2 3 4 4 4 4 4 3 3 4 5 7 10 13 14 15 15 16 17 19 20 24 28 31 34 35 32 32 32 30
2 2 2 3 5 6 7 6 4 3 3 4 4 6 7 10 12 14 13 15 17 17 18 21 24 25 27 30 30 29 29 28 28
2 2 2 3 5 8 8 7 4 4 3 4 5 5 6 6 6 7 8 10 12 15 18 23 26 26 27 28 27 27 26 27 27
2 2 2 4 6 8 10 6 4 4 4 4 5 6 6 6 6 5 7 7 10 14 18 21 23 22 20 19 19 19 19 20 22
3 3 3 4 6 8 8 5 4 4 5 6 6 6 6 7 6 7 8 9 10 13 15 14 15 16 16 18 20 18 18 21 23
4 4 5 7 6 6 6 4 4 5 6 6 6 6 6 9 7 7 9 10 12 14 15 14 16 16 16 17 17 12 16 18 17
4 4 12 12 7 6 6 6 5 5 8 9 8 6 6 9 10 8 9 10 12 15 17 18 20 20 16 10 8 9 11 13 18
6 5 6 9 10 10 8 9 6 5 6 7 7 6 5 6 11 10 9 10 13 15 17 20 23 24 12 8 9 11 10 13 16
5 5 5 10 11 15 12 9 12 13 12 6 6 5 4 5 7 10 8 10 13 17 23 24 25 21 11 10 10 9 9 9 9
5 6 8 8 8 9 21 26 22 16 18 26 19 9 9 8 8 10 12 9 10 14 18 21 22 15 11 12 11 9 8 9 9
8 9 8 14 16 18 20 23 28 40 41 27 28 31 23 15 11 11 16 14 12 15 19 22 21 16 12 14 15 16 13 12 12
15 16 16 12 10 10 10 11 16 30 38 36 37 42 46 49 48 26 18 20 16 14 18 22 21 17 13 15 16 18 17 16 16
10 21 25 19 14 16 20 18 16 13 16 19 32 33 34 38 39 61 63 39 30 21 18 18 21 21 14 14 17 18 16 15 15
21 22 16 22 28 22 18 20 20 22 25 17 13 19 35 40 42 46 60 72 57 42 31 24 20 23 21 17 15 16 17 18 21
19 18 21 25 26 32 39 34 30 42 43 31 25 19 17 17 34 47 50 68 84 76 52 48 33 26 28 29 27 27 30 28 34
12 16 17 24 32 35 38 38 41 43 44 61 66 52 50 61 62 43 52 63 68 93 94 83 67 46 33 35 40 50 65 42 60
7 6 7 30 33 33 38 42 52 60 72 77 88 90 81 73 73 74 62 64 89 89 100 100 98 89 53 48 56 86 68 67 83
8 8 10 10 17 28 35 30 32 56 78 78 86 89 83 74 78 81 72 81 84 95 96 90 92 98 99 96 97 98 97 99 94
14 14 13 13 12 15 26 32 29 29 43 60 72 72 94 81 88 95 100 94 89 94 99 96 86 90 99 98 98 95 97 96 98

GFSFLT1_500_rhum_048.txt.gz
RH
4 3 2 2 2 2 3 4 5 5 4 4 4 4 6 8 8 9 11 12 13 14 15 17 18 17 19 26 28 30 30 30 30
3 2 2 2 2 3 5 5 6 6 4 4 4 4 4 6 8 10 11 12 13 15 17 18 15 15 21 25 27 28 30 30 29
2 2 2 2 2 3 4 7 7 6 5 4 3 4 4 4 5 6 6 6 7 9 10 11 12 18 21 25 27 28 28 27 24
2 2 2 2 2 3 4 6 8 6 4 4 4 4 5 5 5 5 6 5 7 8 11 14 17 21 23 23 20 17 16 17 17
2 2 2 2 2 3 4 5 6 5 4 4 5 6 6 5 4 5 5 5 6 7 8 13 15 13 12 13 13 13 12 16 16
3 3 3 3 4 5 5 5 4 4 4 4 5 6 6 6 6 5 6 7 8 8 10 11 13 13 12 11 12 12 11 11 12
3 4 4 4 7 10 8 6 4 5 5 4 4 7 8 6 5 5 6 6 7 9 11 13 16 15 13 12 11 10 7 7 9
5 6 6 5 4 7 6 7 7 6 6 5 4 5 6 6 5 4 5 7 6 8 12 16 18 19 16 13 8 6 7 8 9
5 4 4 4 3 4 6 10 13 9 8 10 12 12 6 5 5 4 4 6 8 8 9 12 16 20 19 14 9 7 8 8 9
5 4 4 4 4 4 6 7 9 14 17 16 14 13 19 18 9 10 8 7 9 10 10 14 17 22 24 19 10 9 9 9 9
4 4 4 4 5 6 10 13 15 17 20 23 26 30 28 25 30 30 19 12 11 15 15 13 18 21 24 21 14 12 12 10 10
6 7 10 13 14 14 12 11 10 11 14 15 18 20 28 34 40 44 53 55 29 16 19 19 16 21 21 21 17 14 16 16 16
8 8 10 10 15 21 20 16 15 18 18 16 13 12 19 33 38 40 44 51 64 66 44 30 24 20 21 23 24 17 16 18 20
13 18 22 23 19 21 20 24 25 24 20 23 25 22 19 18 16 20 30 42 50 61 71 63 41 33 27 28 30 24 18 18 21
27 22 23 23 30 21 19 24 29 30 38 38 33 28 38 34 33 30 27 33 46 55 61 77 81 53 41 36 32 29 26 20 18
32 22 14 12 13 16 17 21 30 34 40 41 43 56 53 42 52 64 66 62 63 40 48 63 77 94 82 56 53 36 30 30 27
10 10 9 10 9 8 8 27 44 59 63 69 65 60 67 81 78 77 89 94 86 81 81 68 73 77 89 96 88 66 51 39 38
8 8 8 8 7 7 9 14 26 30 49 62 69 59 46 67 86 90 88 93 93 90 90 95 90 87 89 92 98 98 98 91 59
10 9 7 6 9 14 15 14 15 28 36 47 54 54 66 61 57 78 94 98 96 96 97 94 94 93 92 98 99 97 96 94 99
10 8 8 14 16 16 14 12 12 14 25 45 59 73 58 58 66 56 59 72 86 96 90 98 98 97 98 98 90 94 94 95 96

GFSFLT1_500_rhum_051.txt.gz
RH
5 4 3 2 2 2 2 3 4 5 6 5 4 4 3 3 3 4 5 6 8 11 12 14 16 17 18 14 17 20 22 24 26
4 3 2 2 2 2 2 3 4 5 6 6 5 4 3 3 4 4 4 5 6 6 7 11 14 14 10 13 18 21 21 24 26
3 2 2 2 2 2 2 3 3 4 6 5 4 3 3 4 4 5 5 4 4 5 5 6 8 10 12 16 18 20 20 16 13
2 2 2 2 2 2 2 3 3 4 5 5 3 3 3 4 4 4 4 4 5 5 5 7 9 12 14 14 14 13 12 12 12
2 2 2 2 2 2 3 3 4 4 4 4 3 3 4 5 5 4 4 3 4 4 5 6 8 11 15 15 12 11 10 10 10
2 2 2 3 3 4 4 7 7 6 5 4 5 4 4 5 6 6 5 4 4 5 5 6 7 10 15 16 16 13 11 8 7
3 3 4 4 4 4 4 4 4 4 6 6 5 5 4 4 5 5 5 5 4 6 7 6 7 8 12 15 17 17 11 6 6
5 5 5 4 4 4 3 3 4 5 8 9 8 7 8 11 12 8 5 5 5 6 8 8 8 11 13 16 18 15 13 8 7
7 10 9 6 4 3 3 3 4 5 6 7 9 14 17 17 15 17 18 9 7 8 8 10 10 10 16 20 21 21 15 11 10
7 5 4 4 4 4 4 5 6 7 9 11 12 14 17 20 25 31 29 26 27 21 14 11 14 15 14 19 22 20 20 12 11
5 5 6 5 6 7 9 11 12 12 12 11 11 11 12 12 17 23 33 37 38 40 45 43 20 16 18 16 21 22 23 20 16
8 9 8 8 7 6 8 9 12 18 19 16 14 14 17 20 18 17 23 42 42 39 44 55 61 42 27 24 21 22 26 26 18
8 8 8 7 9 12 16 20 19 20 17 22 24 25 24 26 28 30 29 30 26 29 38 45 51 69 62 37 32 32 36 33 28
8 11 12 22 31 24 24 27 30 24 22 21 27 30 33 36 39 38 39 47 50 54 44 34 42 54 70 79 53 41 41 45 40
10 17 34 25 27 24 16 12 11 12 14 12 20 39 44 38 48 59 68 72 73 67 76 81 66 51 42 55 74 79 55 44 39
30 19 19 28 15 12 11 10 10 9 8 10 42 60 51 63 69 64 62 70 89 90 90 96 96 93 86 78 58 67 86 82 59
13 14 18 15 8 9 10 11 9 8 9 13 15 22 31 51 58 66 59 62 70 98 100 98 97 96 96 97 91 79 77 88 98
12 10 8 8 9 9 10 9 8 12 15 16 16 15 22 32 45 64 62 66 81 78 84 90 92 94 96 96 98 97 90 94 93
11 8 13 17 15 10 8 8 15 17 16 13 11 12 16 18 34 40 37 64 48 60 69 84 86 88 92 97 98 99 95 98 92
11 11 13 12 10 8 8 14 18 14 10 10 12 14 10 18 19 15 22 23 34 56 43 46 48 73 100 97 98 98 90 99 96

GFSFLT1_500_rhum_054.txt.gz
RH
7 4 3 3 2 2 2 2 2 2 3 3 4 4 3 3 2 2 3 3 4 4 5 4 5 6 11 15 12 11 14 19 21
5 4 3 2 2 2 2 2 2 2 3 3 4 4 3 3 2 3 3 3 3 3 4 4 4 5 6 8 9 11 13 16 17
4 3 2 2 2 2 2 2 2 2 2 3 4 3 3 3 3 3 3 3 3 3 3 3 4 5 6 7 10 11 12 13 13
4 3 2 2 2 2 2 2 2 3 4 4 4 4 3 3 3 3 4 4 4 4 4 4 4 5 5 6 7 10 10 11 11
4 3 2 2 2 2 3 3 4 5 5 5 4 4 4 4 4 3 4 4 5 4 4 4 5 5 7 7 8 8 9 10 10
4 4 3 3 3 3 3 4 4 4 4 4 5 6 6 6 5 6 7 7 6 4 4 4 6 7 6 7 8 10 10 11 10
5 4 4 4 5 4 4 3 3 3 3 4 5 6 6 6 7 9 11 12 12 8 4 4 4 6 7 7 10 14 15 16 14
5 5 5 6 9 7 4 3 3 3 4 4 5 6 8 9 11 13 16 19 22 21 19 13 10 8 8 9 11 16 19 19 19
6 6 6 6 4 4 3 4 4 6 7 8 9 10 10 11 12 13 15 15 15 20 28 32 33 25 12 10 13 14 17 20 18
7 7 6 5 6 6 6 6 8 8 9 9 9 12 14 14 14 14 15 16 16 17 22 28 32 38 45 33 18 16 18 20 23
7 7 7 8 8 8 8 6 6 9 11 13 16 20 20 20 21 23 22 23 23 22 21 21 20 26 35 50 50 26 22 24 29
9 9 8 8 7 8 8 13 24 22 23 26 28 23 18 19 25 27 29 36 39 39 34 32 32 32 28 24 38 61 51 30 28
10 13 9 8 9 10 16 27 22 23 21 19 18 13 15 13 16 27 35 43 46 48 56 66 58 46 42 46 37 37 54 69 50
14 13 10 9 10 18 34 29 31 26 16 10 9 9 9 8 12 40 62 59 66 69 70 71 72 79 84 84 83 76 50 49 66
11 12 11 11 26 26 20 27 19 13 12 9 10 9 8 8 16 36 42 47 63 62 76 75 74 82 89 95 93 97 94 79 56
13 15 13 13 14 16 16 18 11 10 10 10 10 8 10 15 19 31 51 46 56 62 68 66 65 68 82 83 85 90 97 98 95
16 16 14 14 14 15 12 10 9 10 11 10 8 8 15 17 14 13 20 35 41 50 53 53 68 72 50 58 72 85 92 100 99
17 15 16 15 14 12 10 10 13 13 11 9 10 14 16 16 12 12 16 14 25 28 32 30 31 32 35 43 58 73 85 82 92
24 23 15 15 13 10 12 16 16 12 9 9 18 17 16 12 11 7 8 16 14 18 20 19 21 20 17 24 38 50 67 68 84
19 18 17 14 11 14 15 16 13 9 9 17 17 12 11 8 7 6 8 9 11 11 11 10 9 18 13 12 14 30 34 68 98

GFSFLT1_500_rhum_057.txt.gz
RH
11 6 4 3 2 2 2 2 2 2 2 2 2 3 3 2 2 2 2 3 3 3 3 3 2 3 3 4 5 6 7 7 10
9 5 3 2 2 2 2 2 2 2 2 2 3 3 3 3 3 3 3 3 3 3 3 3 3 3 3 4 5 5 6 7 8
9 5 3 2 2 2 2 2 2 2 2 3 4 4 3 3 3 4 3 3 3 3 4 4 3 3 3 4 5 5 6 7 7
10 6 4 3 2 2 2 2 2 3 3 4 3 3 4 4 5 5 5 5 6 6 6 5 4 3 4 5 4 5 6 8 8
11 6 4 4 3 3 3 3 4 4 3 3 2 2 3 4 6 6 6 7 8 10 11 10 7 4 4 4 6 5 6 8 9
10 6 5 4 4 5 5 5 4 3 3 3 3 3 4 5 7 8 9 10 13 15 17 18 17 15 10 7 5 6 7 7 10
10 6 5 5 5 6 8 6 4 3 3 3 5 6 8 8 9 10 10 11 12 12 12 12 14 20 23 23 16 9 8 9 9
12 8 6 6 6 6 4 4 4 4 5 7 8 8 8 9 12 14 15 14 13 13 14 15 15 16 20 24 30 32 21 14 12
12 9 7 6 6 5 6 7 7 7 6 6 8 11 14 18 19 18 18 18 20 21 21 22 21 18 16 17 21 36 43 30 17
13 10 8 7 7 7 8 7 7 7 8 18 20 21 23 24 23 19 17 17 18 24 27 32 32 29 28 25 24 25 27 39 45
13 10 8 8 8 8 8 7 9 10 23 23 21 20 19 19 14 11 10 9 10 19 30 33 34 42 53 63 55 47 42 37 32
14 10 9 9 11 10 8 8 10 17 25 23 26 20 12 9 8 9 9 7 11 33 52 49 54 60 58 63 64 70 78 75 69
14 11 10 11 13 10 9 10 15 32 28 29 25 12 10 9 10 9 8 9 14 21 32 36 41 50 53 64 62 65 78 91 93
14 14 13 12 11 12 11 13 21 20 16 14 14 10 9 10 10 9 10 14 18 30 31 26 30 36 45 51 57 53 61 73 77
17 18 17 12 12 16 15 13 14 14 14 12 8 9 12 12 9 11 15 17 17 19 18 17 20 26 39 43 36 58 62 59 75
18 17 15 13 14 16 16 21 16 14 12 9 11 13 13 11 10 13 16 14 12 12 13 13 12 19 18 25 20 14 16 18 38
20 19 17 18 22 16 20 23 15 15 13 11 14 16 14 10 13 16 15 13 14 12 10 11 12 11 12 12 11 11 10 11 14
23 22 23 35 37 26 41 21 16 14 12 11 15 18 14 10 15 14 13 12 9 10 11 11 11 11 12 11 9 11 12 11 10
23 24 28 39 35 23 18 17 15 12 15 17 14 12 9 12 17 15 10 9 12 13 11 11 13 15 13 10 13 10 10 11 12
38 41 42 27 21 19 18 16 12 16 23 19 15 10 13 18 14 11 7 8 8 9 11 14 16 15 12 15 13 11 14 15 14

GFSFLT1_500_rhum_060.txt.gz
RH
12 8 5 3 2 2 2 2 2 2 2 2 2 3 3 3 3 3 3 3 3 3 2 3 4 4 3 3 3 3 4 4 5
14 8 5 3 2 2 2 2 2 2 2 2 3 3 3 3 3 3 4 4 4 5 6 6 6 5 4 4 3 4 4 4 5
14 10 6 4 3 2 2 2 2 2 3 3 3 2 2 2 3 4 4 5 6 7 8 9 10 10 9 7 5 4 5 4 5
16 12 8 5 4 4 3 3 4 4 4 3 3 3 3 3 4 5 6 7 7 8 9 10 11 12 13 14 12 9 6 6 6
17 14 9 6 5 4 4 5 5 5 4 3 3 3 3 5 7 7 8 9 9 10 10 10 10 10 11 13 16 18 16 11 7
18 14 10 6 5 5 6 7 7 5 3 3 3 5 7 8 9 9 11 14 15 15 14 13 14 14 15 15 15 17 21 26 18
17 13 10 7 6 6 6 5 4 4 4 5 6 6 8 12 13 15 18 18 17 15 15 18 19 20 22 21 18 16 17 20 31
19 16 12 9 7 6 6 5 5 7 7 7 6 8 15 18 19 21 21 19 17 16 14 14 18 22 27 28 27 25 23 20 20
21 18 15 11 8 7 6 7 8 7 7 7 9 19 20 19 20 17 12 8 8 8 8 8 11 23 32 31 31 42 53 49 39
22 20 17 13 9 8 8 8 8 7 8 9 14 20 20 23 20 12 8 8 9 9 7 7 12 32 42 43 49 49 48 52 56
24 21 19 15 10 9 9 10 9 8 9 10 18 25 26 26 16 10 9 10 11 9 7 10 14 22 26 25 32 43 48 56 53
26 23 19 16 12 10 11 12 10 10 10 17 22 16 16 14 12 9 11 12 10 9 9 14 18 26 23 23 30 38 46 50 53
27 25 23 19 14 13 13 11 11 13 13 12 13 15 17 13 9 11 13 13 10 10 14 16 17 16 14 18 18 22 35 41 40
36 34 28 22 18 18 16 12 14 17 14 18 18 15 14 10 10 14 14 12 10 12 16 16 14 12 11 10 9 15 22 26 29
40 33 27 24 20 19 16 13 15 16 20 35 21 16 14 11 13 16 15 11 12 15 16 14 12 9 7 8 11 9 10 12 15
38 33 28 25 22 19 17 16 24 22 23 51 32 17 15 12 15 17 14 12 14 15 14 12 8 7 8 9 9 8 10 10 10
39 34 29 26 23 21 20 21 33 44 26 32 18 16 14 14 16 16 14 13 15 15 12 8 8 8 7 8 9 12 12 11 11
40 36 31 27 26 22 21 31 40 36 23 18 17 15 13 22 20 13 13 16 15 13 9 8 9 8 8 10 13 13 12 14 13
41 36 32 29 28 28 36 41 34 23 20 19 16 13 26 26 22 12 15 16 14 11 12 11 9 11 12 14 14 14 16 17 15
43 38 35 32 29 33 46 42 29 26 20 15 17 28 23 19 14 11 16 14 10 13 12 11 15 16 18 15 16 18 19 20 16

GFSFLT1_500_rhum_063.txt.gz
RH
14 11 7 4 3 2 2 2 2 2 2 2 2 3 3 3 2 3 3 4 4 6 6 6 7 8 8 8 8 7 6 4 4
15 12 7 5 4 3 2 2 2 2 2 3 3 3 2 2 3 3 5 6 7 7 8 8 9 9 9 9 10 10 10 9 7
16 14 11 8 5 4 3 3 3 4 4 4 3 3 3 3 4 6 8 8 9 11 12 13 13 12 11 11 11 12 13 14 14
17 16 13 10 6 5 4 4 4 5 5 5 4 3 3 4 6 8 11 12 14 15 15 15 13 13 13 14 15 16 16 15 16
19 18 15 11 8 6 5 5 5 6 5 4 3 4 5 5 7 13 15 16 16 15 14 13 12 13 13 15 18 20 20 17 17
20 18 16 12 10 7 6 6 5 5 4 5 6 7 5 6 13 16 18 17 15 13 12 9 9 9 9 11 16 22 24 23 21
20 19 17 14 11 8 7 6 6 5 6 7 8 7 6 13 18 18 19 17 11 8 8 8 10 9 8 8 17 28 27 30 36
22 21 20 17 13 10 7 6 6 7 8 7 7 8 10 16 19 21 22 16 9 8 10 12 12 9 7 11 26 33 33 36 37
24 23 22 20 16 12 9 8 8 8 8 7 8 9 11 17 22 23 20 12 8 10 13 14 10 8 10 14 20 22 22 25 30
28 25 24 22 19 14 12 10 9 9 10 9 9 10 18 22 16 16 15 11 8 14 16 14 12 9 13 17 23 22 20 24 31
32 28 26 23 20 18 16 13 11 11 11 10 11 12 14 14 14 16 14 8 9 17 17 16 11 12 15 17 17 15 17 17 19
36 31 28 26 24 23 19 15 15 15 12 12 16 16 16 22 19 15 12 9 14 18 18 16 12 13 16 16 14 13 10 8 10
42 42 37 33 32 28 21 19 19 17 13 13 16 16 25 34 27 16 14 11 15 19 20 16 12 14 16 14 11 8 8 8 10
50 47 42 40 38 32 26 21 20 17 14 14 17 19 21 43 39 18 15 12 16 21 22 14 13 15 16 12 7 6 9 11 10
58 52 47 43 38 32 27 22 21 18 17 19 28 37 34 29 23 17 15 13 21 23 17 14 14 15 14 9 7 7 7 8 8
63 58 50 44 41 36 30 26 23 22 22 24 31 39 33 24 19 17 14 17 24 22 15 13 14 16 11 7 7 7 7 8 10
68 61 51 46 43 40 34 32 29 28 24 35 39 38 26 21 19 15 15 24 22 18 15 13 15 13 8 8 8 8 8 11 13
66 59 51 47 45 42 37 33 32 28 28 38 41 38 33 24 16 17 20 21 17 16 13 15 15 11 8 8 9 10 12 13 14
62 56 53 50 47 44 40 36 32 28 32 46 42 30 27 18 21 26 26 21 15 14 15 16 12 9 9 10 11 13 14 14 15
64 66 62 54 51 47 42 36 31 36 50 47 34 24 26 25 30 30 28 22 15 15 16 12 11 12 12 12 14 15 15 15 17

GFSFLT1_500_rhum_066.txt.gz
RH
14 13 9 5 4 3 2 2 2 2 2 2 3 3 3 3 3 4 6 9 11 11 14 14 14 14 12 12 11 12 12 13 13
15 14 11 8 5 4 3 3 3 3 3 4 4 4 3 3 4 6 8 13 15 16 15 14 14 13 12 12 12 14 15 16 16
16 15 14 12 8 5 4 4 4 4 5 5 5 4 3 4 5 7 12 15 16 15 13 14 14 10 9 10 10 13 16 18 19
18 17 16 14 11 7 6 5 5 5 5 5 4 4 5 6 5 10 15 17 16 13 11 12 11 9 10 11 10 10 12 18 22
19 19 18 16 12 10 7 6 6 5 5 4 5 6 7 6 7 12 14 17 16 13 10 11 13 14 14 13 11 8 12 24 26
21 20 19 17 15 13 11 8 7 6 6 6 7 7 7 7 10 12 16 19 19 13 9 10 16 18 16 13 11 9 14 20 23
22 21 20 19 18 15 13 10 8 7 7 7 7 7 8 8 10 16 19 17 15 13 8 12 19 19 17 14 11 11 14 17 19
24 22 22 21 19 16 14 12 9 8 8 8 8 9 8 9 14 20 16 16 22 16 8 12 20 20 18 15 11 12 17 18 17
27 25 25 24 22 18 16 15 14 11 10 10 10 10 9 11 14 14 12 15 18 13 8 14 20 21 19 15 12 14 16 16 16
33 31 28 26 24 22 20 20 17 15 13 13 12 11 12 17 17 25 37 31 20 13 10 15 21 22 20 16 13 15 16 15 14
36 36 35 29 26 25 25 24 22 19 16 17 16 13 14 17 17 24 39 48 28 15 11 13 23 23 21 16 13 15 15 13 10
39 42 40 34 33 31 30 30 27 22 21 21 19 18 15 16 18 21 37 42 25 16 13 13 24 25 22 16 14 16 14 11 7
42 49 44 44 43 39 38 36 30 24 22 22 21 21 18 22 30 43 42 33 22 16 13 16 26 25 21 15 13 15 12 8 7
48 56 52 53 50 46 44 40 34 29 25 25 24 25 23 26 32 40 36 27 23 17 14 22 26 24 21 13 14 15 10 9 9
53 60 60 59 58 54 48 44 39 33 30 31 28 28 28 36 40 38 29 32 27 18 17 26 24 24 19 12 15 15 8 8 7
55 63 64 65 68 63 53 48 44 42 39 38 34 34 30 41 42 39 31 28 23 18 25 25 25 24 15 13 16 12 7 8 8
60 66 68 66 68 67 57 51 48 46 41 40 39 38 32 38 47 40 24 19 25 28 27 27 26 22 13 14 14 8 8 9 11
72 70 66 67 65 62 56 52 50 48 44 41 41 46 38 48 43 32 26 27 28 30 29 28 24 16 14 15 10 8 9 10 11
73 73 67 71 70 66 60 60 58 51 61 56 38 37 48 50 43 31 36 33 33 31 29 27 19 14 16 11 8 9 11 11 14
79 74 71 72 75 72 72 70 58 56 62 56 45 49 49 40 40 42 35 33 33 30 29 19 15 15 11 9 10 12 13 15 17

GFSFLT1_500_rhum_069.txt.gz
RH
13 13 11 8 5 3 3 2 2 2 2 3 4 4 4 4 4 6 8 13 16 16 15 13 16 15 11 9 9 11 12 14 14
15 14 13 10 7 5 4 4 4 4 4 4 5 5 4 4 5 6 10 14 16 15 13 12 14 16 15 16 17 15 13 11 12
16 16 15 14 11 8 6 5 5 5 5 5 5 4 4 6 6 7 11 13 16 16 13 12 13 17 20 20 20 18 14 10 14
18 17 17 15 13 10 8 7 6 5 5 5 5 6 7 7 7 8 10 14 17 18 14 11 10 16 20 21 21 18 14 11 13
19 19 19 17 15 13 11 9 7 6 6 6 6 7 7 7 8 9 11 18 17 13 16 16 9 16 20 21 22 20 15 12 12
20 21 21 20 18 16 14 12 9 8 7 7 7 7 8 8 8 9 16 21 18 20 26 16 8 14 20 21 22 22 19 12 12
23 23 22 22 21 20 18 16 13 11 10 9 8 9 10 9 10 13 16 20 21 17 22 16 9 13 20 22 22 24 20 13 12
24 24 24 23 23 22 20 18 17 15 14 12 12 13 12 10 12 17 19 29 41 45 31 15 12 12 20 24 24 24 19 14 13
28 28 26 26 25 24 23 21 22 19 16 14 14 16 16 14 15 19 18 22 33 50 44 19 15 12 17 24 25 24 19 14 14
32 32 32 31 29 27 26 25 25 24 21 19 19 20 19 17 18 16 17 26 43 46 40 25 16 13 15 25 25 23 18 14 15
33 36 38 37 36 32 28 28 28 28 25 23 22 22 21 22 21 20 23 35 45 44 38 27 20 14 19 26 24 24 18 13 15
33 38 41 43 44 37 37 37 36 37 36 31 28 26 23 23 24 24 27 34 44 42 37 33 24 16 21 25 24 22 14 14 15
28 36 43 47 51 45 47 46 44 42 40 37 33 29 28 26 27 29 38 46 44 43 39 33 26 19 25 25 24 22 13 15 15
24 30 39 49 58 56 56 54 52 48 44 43 39 36 34 32 31 32 40 45 46 44 35 25 22 25 27 27 25 17 14 16 14
20 25 34 47 57 62 62 62 62 58 52 47 45 44 40 38 36 33 35 43 48 41 32 36 29 29 30 28 26 17 15 16 12
21 22 28 44 55 60 62 60 59 62 56 51 48 48 44 42 44 46 37 48 46 37 36 35 31 31 29 28 26 15 14 14 10
61 57 51 46 55 60 62 58 59 62 59 52 52 53 48 52 50 42 45 51 42 36 38 33 32 30 28 32 26 14 15 10 10
89 91 87 67 56 57 71 72 68 64 65 61 57 58 58 64 62 48 56 48 35 40 35 33 32 30 33 30 17 14 12 9 10
80 78 74 75 77 72 67 63 61 60 62 67 68 64 63 70 68 59 52 49 41 40 34 32 31 37 34 22 15 14 10 9 13
57 65 74 72 89 90 89 87 84 71 69 71 72 72 78 78 72 70 52 46 44 37 34 32 38 38 24 18 14 12 8 12 15

GFSFLT1_500_rhum_072.txt.gz
RH
13 13 12 10 6 4 3 3 2 2 3 4 4 4 5 4 4 6 8 12 14 16 15 14 13 16 19 21 21 22 22 22 19
14 14 13 12 9 6 5 4 4 4 4 5 5 5 4 4 6 6 9 11 14 17 17 14 12 12 16 19 21 22 23 23 19
16 16 15 14 12 10 8 6 5 5 5 5 5 4 6 7 7 7 9 12 18 20 18 16 21 13 13 18 21 22 23 24 21
17 17 17 16 15 13 10 8 7 6 6 5 5 6 6 7 7 8 9 17 23 26 21 27 23 12 11 16 20 21 23 25 24
19 18 19 19 17 15 12 11 9 8 6 6 6 7 7 8 9 9 11 17 22 27 22 25 27 13 11 15 19 22 23 25 25
21 20 20 20 20 17 16 14 11 9 8 8 8 8 9 10 10 11 15 18 23 32 43 45 35 20 14 14 18 22 23 25 25
23 22 22 22 22 22 21 19 17 15 13 12 12 12 14 15 14 16 20 21 22 25 42 47 38 24 18 14 16 21 23 25 26
24 24 24 24 24 24 24 23 22 22 21 18 17 16 19 20 22 22 24 24 21 30 47 45 40 28 22 17 16 22 25 26 26
26 27 26 26 26 26 26 25 25 25 25 25 24 24 26 25 25 27 29 28 25 33 45 44 39 31 24 19 18 24 25 26 26
29 30 31 31 31 31 30 28 26 27 28 30 29 26 26 27 27 28 31 33 33 34 45 44 40 37 29 21 19 25 25 26 25
30 32 33 35 37 38 38 35 30 30 32 35 35 32 30 29 28 29 34 36 39 47 49 47 43 36 29 22 22 26 26 27 24
23 30 33 36 39 42 46 40 38 41 40 41 40 37 34 33 32 34 35 38 41 47 47 45 43 35 30 24 27 28 28 27 25
19 23 28 34 41 44 50 50 49 51 50 49 46 43 42 40 39 39 39 40 41 40 44 48 42 36 36 29 29 30 28 29 23
18 19 22 26 33 42 48 53 55 57 57 58 56 52 48 46 46 46 45 45 46 46 44 49 41 36 36 31 31 30 28 28 18
19 19 18 20 24 33 43 53 58 60 59 60 61 58 53 50 49 50 50 51 55 51 48 51 42 38 35 32 31 30 30 24 16
57 36 20 19 21 27 37 44 52 58 60 59 60 62 61 56 54 55 54 58 66 68 66 55 38 40 32 31 30 33 34 20 15
71 79 79 49 45 39 39 47 54 57 61 65 67 67 67 63 60 62 55 60 70 73 66 63 42 41 32 31 31 37 26 16 15
48 61 74 88 92 89 82 70 62 59 68 72 60 58 66 72 68 64 62 66 86 87 77 66 44 39 33 32 36 37 19 16 14
54 55 70 74 79 83 79 76 81 80 75 74 79 68 60 52 55 68 76 85 82 76 67 54 48 39 35 36 38 29 17 15 13
94 92 84 92 89 75 75 70 68 71 72 72 72 69 64 60 56 62 84 79 74 72 71 55 44 40 38 40 39 24 18 15 12

GFSFLT1_500_rhum_075.txt.gz
RH
12 12 12 11 10 7 4 3 3 2 3 3 4 4 5 5 4 5 7 9 11 16 20 22 19 18 20 16 17 20 21 22 22
12 13 13 13 11 9 6 5 4 4 4 5 5 5 4 4 6 6 8 9 14 21 26 25 27 29 20 15 16 19 20 21 22
14 14 14 14 14 12 10 6 5 5 5 5 5 5 6 7 7 7 8 10 16 22 26 26 29 32 22 16 16 18 20 21 22
16 17 16 16 16 15 12 9 7 7 6 6 6 6 7 7 7 8 10 13 18 22 29 36 39 38 31 22 16 17 20 21 23
18 19 19 18 18 17 16 13 12 10 8 7 7 7 8 9 11 11 13 17 21 23 25 36 43 40 34 27 22 18 20 22 24
19 21 20 20 20 20 18 16 16 14 11 10 10 10 12 15 17 17 19 24 26 25 26 39 44 39 37 33 27 23 22 23 24
20 22 22 21 22 22 21 21 20 18 16 17 16 17 18 22 23 24 26 29 29 30 29 37 44 42 38 35 31 28 23 23 25
22 24 24 23 23 23 24 24 24 22 22 22 22 23 22 25 27 28 28 31 33 34 36 37 45 45 41 38 33 29 24 25 25
23 26 26 25 25 26 26 27 27 26 26 26 27 27 25 27 29 29 30 33 36 38 41 46 50 49 46 40 34 28 26 26 26
22 26 29 29 29 30 30 31 32 31 28 28 30 33 34 32 31 32 35 37 40 42 43 45 47 47 46 41 35 31 28 28 29
16 22 28 30 32 33 35 36 38 38 34 34 36 38 39 38 36 37 39 42 42 43 44 44 45 45 48 41 35 36 28 28 29
16 17 22 30 34 36 38 39 41 44 40 43 44 44 45 42 42 43 44 45 46 47 48 49 51 47 49 41 33 37 30 27 27
22 18 18 23 29 33 37 41 44 52 49 51 53 53 53 52 50 48 47 48 49 50 51 52 56 47 51 46 35 37 32 30 28
24 19 19 21 22 26 30 37 44 51 57 58 60 60 60 59 57 54 51 50 51 54 53 55 64 65 64 47 38 39 32 30 32
36 28 24 23 20 20 21 25 32 41 50 60 64 61 60 60 59 61 60 56 56 58 59 59 62 74 66 54 38 38 33 31 36
62 50 53 51 36 26 19 20 25 33 39 47 58 64 67 71 69 66 65 64 65 60 61 66 72 77 76 72 44 40 34 32 39
41 35 42 57 76 82 55 25 28 37 48 42 49 60 80 75 71 68 70 70 65 58 61 71 84 84 79 82 63 43 34 36 38
36 33 34 48 61 77 80 87 83 87 96 80 69 67 71 70 81 81 78 72 67 68 73 81 82 74 71 70 80 43 36 40 37
59 48 54 56 58 65 68 82 90 93 90 79 71 62 52 58 57 69 66 62 59 60 70 77 74 71 75 60 73 64 44 44 35
93 92 96 96 96 96 94 92 87 94 83 77 74 75 63 60 55 59 69 65 58 60 70 73 64 67 68 86 84 88 44 44 32

GFSFLT1_500_rhum_078.txt.gz
RH
9 10 10 11 11 10 8 5 4 3 3 4 4 4 5 5 4 5 7 8 9 14 20 23 27 30 32 28 22 20 21 22 21
10 11 12 12 12 11 10 8 7 5 5 5 5 5 5 5 6 7 7 8 11 16 21 26 30 34 35 32 27 24 23 24 22
13 14 14 14 14 13 13 12 10 8 6 6 5 5 6 6 7 7 8 10 15 19 22 25 31 37 36 32 30 29 26 25 22
13 15 16 16 16 16 15 14 12 9 8 8 6 6 7 7 8 10 11 14 20 24 25 26 33 39 37 33 31 30 28 27 21
13 15 17 18 17 18 17 16 14 13 12 10 8 8 8 9 12 14 14 20 25 27 29 30 33 41 41 36 32 32 30 27 22
14 16 18 19 19 19 20 19 17 17 16 13 12 12 12 15 19 21 22 26 29 32 33 36 38 42 44 41 36 33 31 27 23
13 17 20 21 21 21 22 21 21 22 20 19 20 20 21 22 24 27 29 29 32 34 36 40 43 46 47 48 45 38 33 27 25
13 17 20 22 22 22 23 24 24 25 24 24 25 26 27 29 29 30 31 32 33 36 40 42 44 45 46 45 45 42 36 31 26
16 19 21 24 25 24 25 26 26 27 28 27 27 28 30 31 32 32 33 35 37 40 41 43 45 47 48 47 45 44 38 35 30
15 20 23 25 28 27 28 28 29 31 32 32 31 30 31 34 36 36 36 37 40 43 44 46 47 50 52 54 53 51 45 38 32
15 14 19 24 27 29 30 32 34 36 36 37 36 35 38 39 40 40 40 41 43 44 44 47 50 52 53 57 60 55 52 42 34
20 16 14 18 23 29 32 34 36 38 40 42 43 42 44 46 47 48 49 50 48 46 46 46 51 53 54 57 62 68 62 42 40
27 24 19 17 18 22 29 34 37 41 42 44 48 48 51 55 56 56 56 56 54 49 53 54 56 59 61 61 63 71 70 53 45
36 32 28 24 20 20 21 25 30 33 38 43 47 54 58 61 61 60 60 58 54 59 61 61 64 56 58 62 70 76 76 72 55
38 41 35 27 21 21 20 20 21 22 26 30 39 48 54 59 59 58 56 62 63 62 63 62 64 62 59 65 76 76 76 78 51
48 51 58 59 44 31 29 26 24 21 19 22 28 34 37 48 58 64 65 65 62 60 70 74 66 62 60 64 73 78 67 63 74
56 72 66 60 46 42 46 54 61 52 30 21 20 34 50 54 58 58 70 63 72 76 71 65 60 58 59 66 76 75 70 62 84
72 72 82 82 84 65 53 48 54 67 74 76 75 69 85 86 89 90 87 77 76 67 65 64 59 58 59 64 69 70 73 57 65
85 90 92 95 96 94 85 84 85 83 87 77 85 90 83 79 74 78 75 72 71 62 64 70 65 62 64 68 68 67 68 77 76
97 97 97 97 98 96 96 96 96 98 97 93 95 87 75 74 64 63 66 67 63 65 75 72 64 67 73 72 72 71 68 65 63

GFSFLT1_500_rhum_081.txt.gz
RH
8 8 9 9 10 10 9 8 6 5 4 4 4 5 5 5 4 5 6 7 8 12 17 20 23 26 30 29 27 26 26 26 26
10 11 10 10 10 11 11 11 9 8 6 6 6 5 5 5 6 7 7 8 11 16 21 22 24 27 32 32 29 27 26 27 27
11 12 12 12 11 11 12 13 12 11 9 8 7 6 6 6 7 7 9 11 14 20 24 25 26 29 34 36 33 30 27 28 28
12 12 13 13 13 13 13 13 13 13 12 11 10 8 8 8 8 10 12 14 19 25 27 27 29 33 37 39 39 37 32 28 26
12 12 14 14 16 16 16 15 16 16 15 14 12 10 9 10 11 15 19 20 25 28 28 30 34 37 40 41 43 44 40 33 29
10 11 13 15 18 18 18 18 19 18 18 18 15 13 13 14 17 22 25 26 28 30 30 33 35 38 40 39 39 39 39 37 34
8 11 14 15 18 20 19 20 21 21 21 22 20 20 22 22 25 26 28 29 30 32 33 35 36 37 41 43 45 46 46 46 43
10 10 13 14 17 20 21 21 22 23 24 24 24 25 26 27 28 30 30 31 32 34 36 38 38 38 39 41 46 47 50 54 50
14 12 12 16 18 20 22 23 24 25 26 27 27 27 27 28 29 31 34 35 35 36 38 40 40 40 41 42 45 44 46 52 56
18 17 15 16 19 22 24 24 25 27 28 30 31 32 31 30 31 34 36 38 38 39 41 43 42 41 41 44 48 49 50 54 61
21 18 17 18 21 24 26 26 27 29 31 32 34 34 35 35 36 40 41 42 44 45 47 46 44 43 46 46 49 45 49 59 63
24 19 17 17 19 23 26 28 29 30 32 34 36 37 37 39 40 40 42 45 46 48 49 49 48 50 51 51 54 53 53 59 61
30 24 20 18 17 20 24 27 29 31 31 35 36 37 38 38 37 39 42 44 45 47 50 51 53 60 59 56 59 62 59 52 57
40 34 29 24 22 20 19 20 22 24 28 31 32 34 33 33 34 37 40 41 45 49 51 53 54 56 61 64 60 57 50 57 69
53 41 34 31 29 29 26 24 21 20 18 19 21 23 23 24 25 29 31 35 40 44 51 54 56 65 67 58 55 54 54 56 64
55 43 33 28 26 24 25 23 20 19 17 17 18 17 17 18 21 25 27 28 34 41 42 56 67 64 54 51 48 53 54 60 67
91 70 64 48 42 52 59 51 48 42 36 31 35 35 29 28 24 26 28 32 42 57 63 66 57 58 57 52 60 59 55 56 65
96 96 96 96 94 94 95 82 65 50 57 62 51 63 73 71 70 85 87 85 83 78 69 70 66 60 58 56 65 57 54 60 66
97 96 97 90 95 97 96 98 97 96 94 91 75 69 77 88 100 98 93 96 94 81 74 64 61 62 67 70 70 61 54 57 67
97 97 97 97 95 96 97 96 100 95 95 95 93 88 92 98 93 100 96 90 80 75 72 67 62 71 72 73 76 71 62 58 58

GFSFLT1_500_rhum_084.txt.gz
RH
7 6 7 8 8 8 8 8 8 7 6 6 5 5 5 5 5 5 6 7 8 11 16 20 21 22 22 25 28 28 27 26 23
9 9 8 9 9 8 8 9 10 10 9 8 8 7 6 6 6 6 7 8 10 14 19 22 22 22 24 27 31 32 33 31 27
12 11 10 10 11 10 10 10 11 11 11 10 10 9 8 7 7 8 8 10 14 18 23 23 22 25 28 32 31 34 38 38 34
14 12 12 12 12 12 11 12 12 12 12 12 12 12 11 9 9 9 12 14 17 22 25 24 26 28 30 31 32 33 34 34 36
13 12 12 13 13 13 13 13 13 14 14 14 15 14 12 11 11 12 17 21 23 26 27 28 30 30 30 32 34 35 37 39 41
13 12 12 13 13 13 13 14 14 15 17 17 17 17 15 15 16 18 22 25 27 28 28 29 30 32 32 33 35 37 40 38 38
13 10 11 12 13 14 14 15 15 16 18 19 20 20 19 20 22 24 26 27 29 30 30 31 32 34 34 35 36 36 37 38 44
12 9 8 10 12 13 15 16 16 17 18 20 22 23 23 24 25 26 28 30 31 31 32 33 34 36 37 36 34 33 39 42 42
11 9 9 10 13 15 15 17 18 20 21 22 24 25 26 26 26 27 28 30 32 34 34 35 37 40 40 38 36 40 44 44 46
12 12 12 12 12 14 17 18 20 22 23 24 26 27 28 29 28 29 29 30 34 36 37 39 42 44 43 42 42 44 46 48 55
15 13 14 16 16 16 17 19 21 23 24 26 27 29 30 30 28 28 29 32 36 37 39 44 45 45 44 47 47 50 51 56 58
19 26 28 22 20 19 18 20 22 23 25 28 28 29 31 30 28 27 30 32 33 35 38 44 46 48 51 45 46 52 59 55 46
35 41 28 26 22 20 18 19 19 21 24 27 28 29 29 29 28 30 30 29 30 32 35 39 37 44 50 48 47 56 54 47 44
89 64 35 29 25 22 19 16 15 16 20 24 24 23 25 24 25 28 26 26 28 26 27 31 38 40 48 50 50 54 47 49 45
94 48 40 35 31 24 24 22 20 18 17 17 16 16 18 20 21 20 21 21 22 21 23 26 30 36 43 45 59 52 55 50 49
89 78 52 47 47 38 34 30 28 27 26 24 21 20 18 17 17 17 17 17 19 20 20 23 27 36 60 69 61 61 54 54 60
96 94 85 76 65 60 38 30 26 24 23 25 24 23 24 24 24 29 30 37 42 46 61 67 70 67 67 61 61 57 56 62 62
98 95 97 97 93 71 70 88 67 54 62 58 57 46 43 52 60 65 70 66 66 75 76 79 83 80 72 65 62 55 58 61 64
96 97 97 97 96 96 96 97 98 96 97 100 96 85 78 76 72 76 79 80 87 90 94 92 90 84 81 79 64 53 53 59 62
97 97 96 97 96 96 97 97 96 96 96 96 97 99 95 98 96 98 97 97 94 95 95 88 81 76 75 72 65 59 56 59 62

GFSFLT1_500_rhum_087.txt.gz
RH
6 6 5 6 7 7 7 6 7 7 7 7 6 6 6 6 5 5 6 6 7 9 14 18 19 19 19 20 21 23 25 30 32
9 8 8 7 8 8 8 7 7 8 9 9 9 8 8 7 7 7 7 7 9 13 17 20 20 20 21 21 23 25 26 28 29
13 10 9 9 9 10 9 9 9 8 8 10 10 10 10 9 8 8 8 9 12 15 20 21 21 22 23 23 25 26 28 28 29
15 13 10 11 10 11 11 10 10 10 9 10 10 11 11 11 10 10 10 13 16 20 22 23 24 25 25 25 26 28 28 30 31
18 15 13 11 12 12 11 11 11 11 11 11 11 13 13 13 12 12 13 17 21 24 25 26 26 26 28 29 29 30 30 29 29
23 17 14 13 12 13 12 12 11 11 11 12 13 14 15 15 15 16 18 21 24 25 26 26 26 26 29 31 31 32 32 30 33
27 19 15 13 13 12 12 12 11 11 11 12 13 14 17 18 18 20 22 24 25 27 28 27 28 29 32 34 34 34 34 33 34
26 20 13 12 11 11 12 11 11 12 13 14 16 17 18 20 21 22 24 25 26 28 27 29 30 32 34 36 38 38 37 37 39
24 18 14 12 11 10 10 11 11 13 16 17 17 19 20 22 23 24 25 25 25 25 26 29 31 34 37 37 39 40 42 40 44
27 19 13 12 10 10 10 12 15 15 16 18 19 20 21 23 24 25 25 24 24 25 26 30 29 33 36 37 41 45 45 43 48
32 24 17 13 11 11 11 12 15 17 19 19 19 21 22 24 24 26 24 22 23 25 29 30 32 34 33 31 34 41 43 45 51
33 25 23 15 13 13 14 42 15 18 18 20 21 21 23 24 25 25 25 26 26 27 29 31 32 34 37 37 37 40 42 43 50
34 30 25 19 14 16 69 39 20 20 19 20 23 23 23 23 25 26 29 32 33 34 34 34 31 28 29 28 32 40 44 42 47
34 29 24 20 18 59 77 21 21 20 19 18 20 22 22 21 21 26 27 26 30 31 30 28 26 25 28 27 23 27 35 45 54
43 35 50 22 23 83 46 24 23 21 19 18 17 18 18 19 19 19 20 20 23 26 24 25 24 23 22 21 27 39 60 61 58
89 87 83 30 44 95 42 27 26 27 22 24 25 21 20 19 20 21 20 18 18 19 21 20 21 29 41 70 71 72 74 71 63
95 96 79 42 76 94 59 72 41 66 48 35 32 29 27 24 22 20 21 18 21 23 34 43 57 62 71 72 82 88 79 70 69
96 94 96 86 96 93 89 86 88 84 80 55 72 66 53 35 37 44 40 40 42 54 65 65 74 81 80 79 84 80 78 78 72
95 95 97 97 94 99 99 98 100 97 96 94 97 95 99 87 87 73 61 53 56 72 75 91 87 86 88 85 84 83 78 75 68
95 92 96 97 95 96 94 97 97 97 95 96 97 97 96 96 86 82 92 97 92 87 85 89 89 84 85 80 83 77 72 67 64

GFSFLT1_500_rhum_090.txt.gz
RH
21 8 5 5 6 6 6 7 6 6 6 7 7 7 7 7 7 6 6 7 7 9 12 16 18 18 18 18 19 20 21 22 23
23 12 6 6 6 7 8 8 7 7 7 7 8 9 9 8 8 8 9 8 9 11 15 18 18 19 20 20 21 21 22 22 23
25 17 8 8 7 8 9 9 8 8 8 8 7 8 9 9 9 9 10 10 11 14 18 20 20 21 21 22 23 23 24 24 25
26 22 13 10 9 9 10 10 10 9 10 9 9 9 9 10 11 10 11 11 14 18 20 21 22 22 22 24 25 26 26 25 25
33 24 16 14 11 11 10 11 11 10 10 10 10 9 10 11 12 12 13 14 17 20 21 22 22 24 24 26 28 28 28 28 30
36 30 21 15 14 12 12 13 12 11 10 10 9 9 10 12 14 14 15 17 20 21 22 23 24 26 26 28 30 30 32 32 32
37 34 28 19 16 14 13 13 13 12 11 9 8 10 11 13 15 17 18 20 21 21 22 25 26 27 28 31 32 32 35 34 36
40 37 30 23 18 15 13 13 13 12 11 10 9 12 14 15 16 18 19 21 21 21 23 23 26 27 29 33 34 32 37 35 39
41 38 32 24 20 15 14 13 12 12 11 11 14 16 16 17 18 20 21 22 22 24 24 23 22 26 29 31 36 36 35 34 38
42 38 32 25 22 15 13 12 11 10 11 12 15 17 18 18 20 20 23 24 25 25 26 25 24 25 28 30 33 32 34 36 39
43 37 35 30 23 16 13 12 11 11 13 17 31 18 19 19 20 23 24 26 25 26 24 25 29 29 26 23 27 34 34 35 35
55 50 45 38 26 24 15 14 12 11 12 46 30 19 20 20 21 23 25 26 27 25 27 27 27 28 31 29 26 33 31 28 28
61 57 47 43 30 25 19 16 13 12 37 72 27 18 20 20 21 23 26 27 28 27 29 30 29 31 31 32 28 26 23 20 20
66 59 50 41 34 25 24 17 15 14 63 85 23 21 20 22 22 22 24 24 25 29 32 32 29 26 28 26 23 19 17 19 39
71 62 53 44 34 30 21 19 19 26 74 77 21 23 23 23 22 20 21 24 24 23 24 25 24 22 20 19 18 19 29 55 61
96 76 68 46 36 25 25 62 53 39 91 42 26 23 22 21 21 23 21 19 20 20 21 20 18 18 19 20 33 51 54 59 68
95 95 89 72 40 49 92 96 70 46 93 54 53 45 53 61 33 36 30 28 25 23 21 23 20 22 38 57 61 58 68 65 60
95 95 95 94 97 96 77 92 59 57 88 91 72 56 87 80 70 57 49 48 39 31 36 46 50 51 55 60 70 69 64 63 66
95 93 92 95 96 96 94 94 93 93 96 97 97 96 95 83 84 92 98 90 89 87 83 69 69 73 79 80 78 72 73 69 69
93 85 86 97 100 97 99 95 94 96 96 96 97 96 97 95 88 95 99 94 93 94 96 88 91 90 76 82 79 79 77 71 64

GFSFLT1_500_rhum_093.txt.gz
RH
20 22 17 6 5 5 6 6 7 7 7 6 6 6 7 7 8 7 6 7 8 9 11 14 15 16 17 18 18 18 19 20 21
23 23 22 10 5 5 7 7 8 8 8 7 7 7 8 8 8 8 9 9 9 10 13 16 17 18 18 18 21 22 22 22 22
24 24 24 16 6 6 6 8 9 10 9 8 8 7 7 8 8 9 9 10 10 12 15 17 19 20 21 20 24 24 25 25 25
27 27 25 21 11 8 8 8 10 10 10 10 10 9 9 9 9 10 10 11 12 14 17 18 20 22 22 21 23 25 26 26 25
30 29 28 23 16 11 10 10 10 11 11 10 10 10 9 9 10 10 11 12 14 16 18 19 22 23 23 24 26 26 27 28 27
35 32 31 25 20 15 12 11 11 12 12 11 10 9 8 7 9 11 13 14 16 19 20 21 23 24 24 24 26 26 28 24 29
34 35 35 34 24 18 15 13 12 13 13 12 11 9 8 9 12 13 14 17 18 19 20 23 24 24 25 26 26 31 31 28 28
40 38 36 37 30 24 18 15 14 13 13 13 11 10 9 13 15 15 15 16 19 20 20 23 23 25 25 23 27 28 31 28 26
50 42 43 38 33 27 22 17 14 13 14 13 12 10 11 16 16 16 17 18 19 21 22 22 21 24 23 21 21 28 33 35 32
58 49 48 42 36 28 23 20 15 13 13 13 12 12 12 16 18 18 18 19 21 23 22 22 22 23 24 22 22 25 29 32 32
100 63 48 42 37 30 23 22 17 13 13 13 11 14 17 30 27 19 19 20 22 24 23 25 26 26 22 20 23 23 22 25 28
64 58 49 42 35 28 24 22 18 14 13 13 12 13 26 41 32 20 20 20 22 23 24 26 26 29 27 26 24 22 21 19 20
73 64 53 42 35 30 29 24 18 15 13 13 13 14 32 61 51 20 20 20 21 23 25 26 26 29 28 27 23 22 22 19 17
84 72 60 52 47 44 36 32 23 19 15 14 13 15 57 76 55 19 20 21 21 22 23 22 20 24 25 22 22 21 19 17 16
94 85 72 64 61 57 48 37 29 21 17 15 15 18 54 91 53 22 24 24 24 22 22 22 21 21 19 21 20 19 18 18 22
92 92 85 74 66 57 49 48 44 30 21 17 17 63 36 82 54 26 26 25 25 24 28 24 24 24 23 22 21 20 23 31 40
98 93 94 88 80 76 86 67 60 36 24 27 44 92 78 93 71 35 33 54 54 45 49 32 30 30 27 29 42 44 50 53 63
97 96 95 96 88 91 93 68 66 58 78 91 89 95 77 92 91 86 70 74 80 72 60 63 66 62 53 61 64 61 67 77 74
96 96 98 97 96 96 95 93 98 94 97 96 92 84 61 69 94 91 96 93 87 86 92 94 86 78 79 79 76 76 76 80 76
97 97 97 100 98 94 99 96 96 97 97 98 98 93 96 97 97 90 96 95 91 95 97 93 100 92 84 79 80 83 78 77 75

GFSFLT1_500_rhum_096.txt.gz
RH
26 23 24 20 8 5 5 6 6 7 7 6 6 6 6 7 7 8 8 7 8 9 10 11 13 13 14 16 16 18 19 19 18
30 26 24 24 16 6 5 6 6 8 8 8 7 7 7 7 7 8 8 9 9 10 10 12 14 15 15 16 18 19 20 19 20
29 30 27 24 22 12 5 6 7 8 9 9 8 8 8 7 8 8 8 9 10 10 12 14 16 17 18 18 17 18 18 20 23
26 34 30 27 24 19 7 6 7 8 10 10 10 10 9 9 9 8 9 9 10 11 13 16 17 19 18 18 20 20 20 21 26
29 35 36 31 27 22 13 8 9 9 10 11 11 10 10 10 9 9 8 10 11 12 14 17 18 19 18 20 20 21 21 19 21
44 41 38 34 31 25 18 11 10 10 10 11 12 11 11 10 8 8 11 11 11 13 16 18 19 20 19 20 21 19 20 20 22
54 49 42 39 34 30 21 14 12 12 12 12 12 12 11 10 8 10 14 14 13 14 16 17 19 20 20 21 17 17 20 22 25
56 56 50 44 38 37 29 18 14 14 14 13 14 13 12 10 9 11 16 16 15 16 17 19 20 20 20 22 20 16 17 19 17
54 59 57 48 42 39 36 27 20 14 14 14 14 14 13 11 10 14 16 17 17 16 18 18 20 21 22 22 19 17 17 18 17
68 64 60 55 47 41 38 30 24 19 16 15 14 14 14 13 12 15 17 18 18 18 18 20 19 21 23 25 22 18 17 16 17
99 98 71 68 57 49 49 31 24 19 19 16 15 14 14 14 11 13 24 29 20 19 20 20 20 19 22 23 22 20 22 21 22
84 95 97 72 60 60 63 37 27 21 18 17 15 13 14 14 14 22 31 30 31 20 21 21 21 21 22 22 22 21 20 20 20
92 91 97 99 99 83 70 38 33 24 19 17 15 14 14 14 14 17 30 54 48 20 20 21 21 21 20 20 19 21 20 21 21
96 81 71 84 93 86 50 44 38 31 23 17 18 16 14 14 14 16 38 61 65 21 21 22 22 24 23 22 22 21 20 20 22
97 96 92 78 80 71 64 51 38 28 25 24 18 17 16 15 15 16 48 95 86 22 22 24 25 24 27 29 24 25 24 24 22
86 95 97 98 90 85 66 62 51 42 34 32 29 23 20 16 21 64 30 90 96 43 26 31 25 25 32 35 30 29 29 28 26
93 85 97 96 95 95 94 91 73 70 75 52 35 24 26 68 62 24 37 86 95 64 34 33 52 54 50 57 45 42 50 43 56
98 96 91 96 96 95 96 86 86 64 45 33 57 78 95 84 57 50 75 92 87 92 85 56 79 81 72 74 78 71 70 69 68
99 94 94 98 96 96 97 94 94 77 76 82 95 88 86 95 87 93 95 89 88 95 88 90 84 82 84 89 82 77 80 71 69
99 96 96 94 97 96 98 98 97 95 93 96 96 96 98 97 98 96 94 91 94 95 91 98 92 87 87 90 84 89 88 78 77

GFSFLT1_500_rhum_099.txt.gz
RH
23 28 27 22 20 18 8 5 5 6 7 8 7 6 6 6 7 7 7 7 7 8 9 10 12 14 14 15 15 14 15 14 16
26 26 28 24 22 22 16 6 5 6 7 9 9 8 7 7 7 7 7 8 8 9 9 10 12 15 16 15 16 15 15 16 16
32 28 27 29 26 24 21 12 5 6 7 9 10 8 8 8 8 8 8 8 8 9 10 11 13 16 17 16 17 16 15 16 16
39 31 31 34 30 27 24 18 8 6 7 9 10 10 10 10 9 9 9 9 9 10 10 12 14 17 17 17 18 18 16 16 15
39 38 35 39 35 31 28 23 15 7 8 8 10 10 10 11 10 10 9 9 10 10 11 13 15 17 19 19 20 19 17 15 13
34 43 40 43 41 35 31 27 21 10 9 9 10 11 11 11 11 10 8 9 12 12 12 14 16 18 20 18 18 17 15 13 12
40 40 43 44 46 41 33 31 23 16 11 11 11 12 12 12 11 10 8 10 14 14 13 14 15 17 18 17 18 17 16 13 12
42 50 48 46 48 46 40 34 29 20 13 12 12 13 13 13 13 12 9 9 16 17 16 15 15 16 16 16 18 19 18 14 12
63 53 68 53 47 49 47 39 35 26 17 13 14 14 14 14 14 13 11 10 16 18 18 17 16 16 17 18 16 17 16 15 15
80 61 68 66 56 49 51 45 42 38 22 18 14 15 15 14 15 14 13 12 15 18 19 19 18 18 18 19 18 17 17 18 18
95 78 67 74 67 62 52 50 46 42 29 22 18 16 14 15 15 15 16 15 14 18 23 20 20 20 21 21 21 21 20 20 19
83 93 81 83 86 68 58 52 50 45 39 28 21 20 17 14 15 15 16 16 15 19 21 33 23 20 21 22 23 24 23 22 21
63 96 97 94 97 96 75 66 62 56 54 37 26 20 20 17 14 14 14 16 16 19 22 52 55 22 21 22 23 24 24 25 25
55 96 97 90 85 96 96 89 76 66 68 52 35 30 22 18 15 14 14 14 15 17 25 44 62 33 20 22 23 26 26 35 33
89 94 96 98 87 85 84 90 99 92 85 60 41 35 25 19 16 14 14 14 14 16 16 59 84 63 22 23 27 24 31 43 49
66 100 94 82 97 93 95 92 96 96 95 87 69 36 26 21 17 15 16 15 19 32 29 44 84 79 34 28 30 34 41 46 63
48 80 90 78 97 96 100 92 98 84 82 73 50 59 45 30 21 25 29 39 20 23 54 56 63 72 81 42 30 53 75 74 66
76 72 93 95 95 97 97 97 92 97 94 93 91 81 80 73 74 88 95 20 31 70 94 74 68 87 84 79 66 69 81 72 75
86 100 90 95 95 97 97 98 97 95 90 90 95 95 95 94 93 77 68 29 69 95 91 92 97 90 94 93 86 84 83 78 75
100 96 95 96 94 96 95 96 95 93 93 94 94 88 84 93 93 95 96 96 94 98 98 89 99 96 96 95 92 86 83 81 78

GFSFLT1_500_rhum_102.txt.gz
RH
26 25 22 20 20 19 19 15 7 5 6 7 8 8 6 6 6 6 7 7 7 7 8 9 9 11 13 14 14 14 12 12 12
22 28 27 26 22 21 21 20 12 6 6 7 8 10 9 7 7 7 7 7 7 8 9 9 10 11 13 14 15 14 13 13 13
21 23 29 27 29 26 24 22 20 10 5 7 8 10 11 9 9 8 8 8 8 8 9 10 10 13 15 14 14 14 14 13 12
30 22 22 29 31 34 31 26 23 19 8 6 8 9 11 11 10 10 9 9 9 9 9 10 10 12 15 16 14 14 12 11 10
47 31 22 22 30 34 37 32 28 23 14 6 7 9 10 11 11 11 10 10 8 9 10 10 11 12 13 15 14 12 12 11 10
39 48 35 23 26 31 35 37 32 26 18 9 8 9 10 11 12 12 11 10 7 9 13 13 12 13 13 14 14 14 13 12 12
31 50 47 35 24 31 36 40 36 30 21 16 10 10 10 11 12 12 12 11 9 8 14 16 15 15 15 15 16 15 13 13 12
33 48 56 50 36 28 38 39 41 36 29 16 14 12 11 12 12 13 13 12 11 10 13 16 16 16 17 16 16 17 17 16 15
61 46 57 61 51 40 35 43 42 42 37 23 15 15 14 13 13 14 14 14 13 12 11 16 18 18 19 19 19 17 17 18 18
93 92 86 73 68 57 49 45 48 44 44 35 20 14 14 14 14 14 14 15 15 14 13 15 18 19 20 20 21 22 22 21 21
78 84 95 79 78 75 64 52 52 46 44 45 42 22 14 14 14 14 15 15 15 16 14 13 16 19 23 21 21 22 22 22 23
46 41 65 87 87 77 75 66 57 52 48 53 45 43 22 17 16 15 15 15 15 16 16 15 16 19 24 28 39 22 22 22 23
25 34 38 66 82 78 98 74 58 56 50 55 55 45 40 28 20 19 16 14 14 15 16 17 17 19 24 48 54 48 21 22 23
33 54 49 62 72 74 81 96 87 94 92 75 60 55 50 44 30 22 17 14 14 14 14 15 16 16 17 39 68 68 49 22 24
63 60 58 40 38 44 83 100 78 90 96 97 83 72 60 60 45 28 22 16 14 13 13 14 14 16 16 22 58 94 74 35 26
76 66 49 50 71 50 89 96 97 95 97 88 86 74 78 83 62 39 34 24 16 13 19 17 36 19 24 31 35 60 87 80 65
74 50 41 29 39 60 84 99 98 97 97 92 98 90 89 90 87 90 77 46 20 45 47 52 38 33 53 37 49 60 72 71 82
74 63 42 22 35 58 99 97 96 98 96 96 98 89 86 98 90 64 76 50 91 52 60 42 70 68 42 30 68 93 75 85 88
70 60 38 21 91 92 100 92 98 92 93 96 95 92 98 98 92 84 94 92 95 94 94 94 96 94 44 56 92 88 90 96 94
56 56 94 93 98 97 99 97 94 93 92 91 94 97 92 96 91 95 96 96 96 95 94 89 99 100 96 95 100 90 97 97 96

GFSFLT1_500_rhum_105.txt.gz
RH
16 18 21 20 20 20 20 18 17 10 6 6 7 9 10 8 6 6 6 6 7 7 7 8 8 9 10 12 13 12 10 10 9
31 22 18 23 24 23 22 22 20 17 8 6 7 9 10 10 9 8 7 7 7 7 7 8 9 9 11 12 12 12 10 10 9
30 31 26 21 24 27 26 25 24 21 16 6 6 8 10 12 11 10 9 8 8 8 8 8 9 9 10 13 15 14 13 10 10
38 33 37 40 20 25 28 28 27 24 21 14 6 6 9 10 12 12 10 9 9 9 8 9 9 10 11 12 15 16 13 12 11
18 37 45 47 44 23 24 29 30 29 26 20 10 6 7 9 10 12 12 11 10 9 8 10 12 11 12 12 14 16 17 15 14
11 16 27 40 38 29 24 27 29 30 31 27 19 8 7 8 10 11 12 12 11 10 8 10 13 13 14 14 15 17 18 16 14
14 16 20 25 41 53 38 30 31 31 29 30 26 15 8 9 10 10 12 12 12 11 10 8 13 15 15 16 16 17 18 20 18
16 17 20 23 26 36 43 40 35 35 34 31 31 24 14 10 11 11 12 12 13 12 12 10 10 15 16 16 18 18 19 21 22
30 23 22 24 32 36 46 47 41 41 43 40 35 32 26 13 12 12 12 12 13 14 14 13 11 13 16 18 19 20 21 21 22
49 52 72 72 63 65 62 56 50 43 50 52 46 39 35 24 13 13 13 13 14 14 15 15 14 13 15 18 19 21 21 21 22
62 63 84 83 96 88 93 90 68 59 51 59 54 54 46 35 23 13 13 14 14 15 15 16 16 16 15 17 18 21 23 28 27
64 71 68 86 88 85 88 98 94 76 80 64 63 59 58 50 42 34 15 13 14 15 15 15 16 16 17 17 18 20 22 39 55
78 65 39 49 61 60 58 82 79 97 92 78 70 56 56 59 51 45 34 16 17 15 15 15 15 15 16 17 17 18 19 35 57
82 92 61 44 46 46 41 47 66 90 99 87 70 67 61 59 57 57 46 33 25 19 16 14 14 14 14 15 15 16 16 20 45
58 57 44 39 32 22 33 27 53 74 78 97 95 94 77 80 82 91 63 54 47 22 16 15 14 13 13 13 14 15 19 22 33
78 41 41 36 27 31 46 43 44 70 98 75 81 97 98 96 96 93 97 88 76 64 21 17 15 14 13 14 19 22 34 25 27
91 59 40 48 19 42 49 29 49 52 50 62 70 78 82 94 96 94 95 94 94 72 39 27 21 16 24 48 52 43 46 30 48
92 80 44 45 22 46 35 24 24 48 75 90 88 98 76 99 94 95 96 90 96 97 87 86 92 93 87 87 67 58 65 53 57
62 43 31 21 53 47 30 25 23 30 63 98 96 96 99 96 89 93 97 96 96 97 95 89 88 76 95 94 93 83 99 97 80
16 19 22 59 65 60 21 27 25 30 59 79 97 96 85 92 99 99 99 96 95 94 93 91 96 97 98 98 100 96 94 88 93

GFSFLT1_500_rhum_108.txt.gz
RH
19 15 15 16 20 18 16 16 17 16 10 6 6 7 10 12 8 6 6 6 6 6 6 7 8 8 9 10 12 14 13 11 10
29 32 23 17 17 20 21 18 18 19 16 9 6 7 8 11 12 9 8 7 7 7 7 7 8 9 9 10 12 14 14 13 11
30 38 45 52 43 31 20 21 22 21 20 17 7 6 7 8 11 12 11 9 8 8 8 8 8 9 9 10 11 13 16 14 13
21 29 32 38 40 51 24 20 23 24 23 22 17 7 6 8 8 10 12 12 10 9 9 8 8 10 10 10 11 13 15 14 15
7 19 30 39 44 49 61 36 22 26 25 23 23 18 7 7 8 8 10 12 12 11 10 9 8 11 12 12 12 14 15 16 16
17 14 12 31 68 67 70 67 35 27 28 27 22 24 18 8 7 8 9 10 11 12 11 10 9 9 13 14 14 14 16 17 18
22 18 18 14 33 52 62 64 57 37 31 30 30 25 26 19 8 9 9 10 11 11 11 11 11 9 10 14 15 14 16 18 19
40 29 17 26 34 40 42 57 50 53 40 34 32 33 30 27 21 10 10 10 11 12 12 12 12 12 10 12 15 16 17 18 20
54 46 27 40 52 59 53 29 35 42 46 44 40 40 39 33 28 20 12 11 11 12 12 13 13 13 14 13 14 16 18 18 20
71 64 65 58 51 59 66 60 38 52 42 41 44 45 45 45 39 34 20 12 12 12 12 13 14 14 15 15 15 15 17 18 20
72 77 73 55 64 67 77 77 77 87 72 46 48 50 51 49 46 46 37 16 12 13 14 14 14 15 15 16 16 16 16 17 18
82 85 83 67 58 76 91 94 94 88 92 76 71 57 54 59 56 52 49 39 16 12 13 14 14 15 15 15 16 16 17 17 17
81 80 78 56 74 76 80 84 92 92 72 96 97 76 79 69 62 60 56 54 49 46 21 12 13 14 14 14 14 15 16 17 16
92 88 81 77 82 88 87 97 88 78 82 56 61 66 95 85 70 64 65 62 56 55 51 20 13 13 13 13 13 13 22 17 15
89 91 98 88 86 99 93 73 75 80 67 48 43 47 80 97 95 84 71 70 70 65 72 68 46 30 18 13 12 12 12 13 14
97 99 98 98 100 96 95 75 60 51 48 45 35 31 36 63 87 98 86 92 98 88 93 75 70 65 45 20 15 13 14 14 15
98 97 97 97 89 72 68 54 51 34 27 44 45 30 37 82 73 85 95 93 94 95 96 95 92 98 90 49 26 18 15 16 25
97 98 96 95 80 68 77 55 43 35 24 40 38 23 37 63 68 66 74 88 91 94 97 93 93 96 98 81 33 22 30 45 72
85 94 94 93 91 90 92 72 38 37 34 37 26 20 16 34 55 66 66 96 92 88 90 94 92 96 93 93 95 90 96 94 96
56 60 70 77 72 81 88 29 34 39 36 38 18 17 16 20 41 79 91 93 97 96 94 91 98 97 96 96 96 96 97 96 96

GFSFLT1_500_rhum_111.txt.gz
RH
11 17 20 16 15 14 18 16 15 16 15 10 6 6 8 10 11 10 8 6 6 6 6 6 7 8 8 9 10 10 12 12 10
19 30 26 26 22 18 15 19 17 17 17 16 11 6 7 8 10 11 10 9 7 7 7 7 7 8 8 9 9 11 12 13 13
18 20 24 34 40 51 54 27 20 20 19 18 18 12 6 7 8 11 12 11 10 8 8 8 8 8 8 9 10 11 12 13 14
38 31 29 29 34 44 57 52 37 22 22 21 19 19 14 6 7 8 10 11 11 10 9 9 9 8 8 10 11 12 12 14 15
24 26 32 32 31 38 40 48 53 52 27 24 24 21 20 17 7 7 8 9 10 10 11 10 10 10 8 10 12 13 13 14 16
22 22 21 12 23 44 53 62 64 58 60 34 29 27 25 23 21 9 8 8 9 10 10 11 11 10 10 8 11 14 15 15 16
22 24 21 22 18 20 55 63 63 62 70 54 36 33 31 31 28 24 14 8 9 9 10 11 11 11 11 11 10 11 14 16 16
46 44 26 25 26 28 38 50 59 49 57 60 56 39 36 35 35 32 26 16 10 10 10 10 11 12 12 12 12 11 12 14 16
58 65 66 35 44 41 42 56 60 62 51 37 34 50 43 39 37 39 33 27 17 11 11 11 11 12 12 13 13 14 13 13 14
70 65 78 66 60 62 56 58 69 84 79 48 27 23 34 44 42 40 37 37 33 23 13 12 12 12 13 14 14 15 15 15 15
77 82 86 84 85 80 74 74 61 73 80 84 75 45 37 38 44 44 46 46 44 42 31 14 13 13 13 14 14 15 16 16 16
64 99 94 96 94 88 86 84 80 82 92 82 91 84 80 62 47 45 47 51 51 51 51 33 15 12 13 14 14 14 15 15 16
92 88 86 88 84 90 90 90 82 74 88 96 92 98 84 83 92 73 66 61 58 60 59 57 49 31 18 14 13 14 14 14 14
38 94 97 99 92 91 88 87 82 78 90 90 87 91 79 90 86 68 52 81 79 71 67 61 59 57 51 34 14 13 13 15 17
17 40 95 97 96 95 99 90 82 84 93 98 97 97 87 74 74 64 50 67 82 86 71 75 67 64 64 63 51 39 29 22 18
15 24 44 96 95 94 87 65 97 90 95 98 93 80 70 53 37 40 34 37 92 96 91 85 87 89 84 85 90 63 62 57 46
19 15 32 91 96 97 99 90 94 96 100 94 92 69 46 31 32 40 34 29 39 66 75 91 86 92 96 95 97 84 89 93 92
32 35 36 48 97 99 97 97 97 96 93 83 72 49 44 33 30 34 36 27 43 78 73 77 89 90 91 92 96 96 91 76 92
32 37 49 45 52 94 97 95 96 96 97 94 84 67 36 32 32 34 28 24 21 48 69 70 66 74 85 90 93 96 95 95 93
41 36 42 45 50 75 94 95 96 96 98 96 92 75 41 29 34 33 27 20 19 26 62 84 87 78 93 96 93 95 93 92 93

GFSFLT1_500_rhum_114.txt.gz
RH
9 7 7 14 19 18 14 14 17 16 15 16 12 7 6 8 10 10 10 8 6 6 6 6 7 7 8 8 8 9 10 11 11
27 28 15 22 24 21 22 16 17 19 17 15 16 14 8 6 7 9 10 10 9 8 7 7 7 7 8 8 9 10 11 12 13
37 42 33 24 24 42 40 38 38 23 20 19 17 17 17 9 6 7 9 10 10 9 9 8 8 8 8 8 10 12 12 12 14
30 34 41 42 35 36 46 49 46 52 38 26 22 20 19 19 14 6 7 8 9 10 10 10 9 9 9 8 8 12 14 15 16
26 25 26 27 35 40 39 46 48 46 40 44 37 26 26 24 23 20 9 7 8 8 10 10 10 10 10 10 8 9 12 14 16
20 20 19 21 23 23 24 37 45 52 57 56 59 56 35 29 27 28 25 16 8 8 8 9 10 10 11 11 11 9 9 12 15
24 34 27 20 20 23 24 31 32 42 61 60 65 67 66 41 34 35 32 29 23 12 9 9 9 10 10 11 11 11 11 10 12
60 45 30 26 26 31 24 25 28 27 46 60 66 71 72 56 38 34 34 37 33 27 18 10 10 10 10 11 11 12 12 12 12
29 47 57 46 43 51 53 31 33 41 41 50 53 63 69 68 55 52 37 35 37 37 32 23 14 11 11 11 12 12 13 13 14
49 40 50 72 64 60 64 71 52 64 62 50 64 69 67 59 46 42 51 45 40 44 48 39 30 20 13 12 12 12 13 14 14
23 46 48 69 76 68 73 77 79 81 82 75 63 73 78 76 59 40 46 48 47 45 47 49 48 44 32 14 13 13 13 14 14
6 7 18 48 62 79 83 94 94 94 93 90 86 79 74 75 77 69 90 71 50 47 51 50 52 54 54 40 17 12 13 13 14
8 7 5 8 47 82 92 96 98 100 96 94 95 92 88 87 86 86 88 100 99 82 70 67 60 59 56 58 55 34 19 15 13
16 10 8 12 39 58 81 90 98 98 97 98 96 95 82 93 97 84 94 81 85 91 50 61 90 87 69 65 61 62 57 49 34
64 79 56 14 8 42 87 98 98 98 93 97 97 96 87 86 100 90 99 90 83 64 61 54 34 82 81 77 71 70 64 67 69
53 58 50 40 13 12 40 94 96 96 99 96 97 98 92 89 92 98 94 88 66 41 34 40 40 62 83 94 90 79 68 85 84
55 41 25 22 19 14 11 26 96 96 97 96 94 92 84 88 100 96 88 69 41 31 29 38 33 29 45 84 97 88 88 91 91
64 54 48 24 18 18 16 15 26 82 94 97 93 90 86 99 99 95 82 58 39 34 32 29 31 27 40 76 93 97 90 92 90
98 97 94 30 28 30 24 15 27 64 97 97 94 96 97 98 96 92 72 48 35 32 33 30 29 24 19 46 86 86 87 84 89
51 59 52 47 38 36 44 59 55 71 92 98 97 97 98 96 92 82 75 57 48 43 39 35 33 26 18 25 56 64 68 73 84

GFSFLT1_500_rhum_117.txt.gz
RH
12 16 11 8 6 6 14 15 15 17 18 16 15 15 10 6 8 10 10 9 7 6 6 6 6 7 7 8 8 9 10 11 13
30 29 26 28 21 14 20 22 19 18 18 19 18 16 17 13 6 7 8 9 9 7 7 6 7 7 8 8 8 9 10 11 12
33 34 34 38 41 28 30 42 38 35 30 26 22 21 18 20 18 9 7 8 8 8 8 8 8 8 8 8 8 8 10 12 14
33 34 35 31 35 38 39 42 43 41 42 46 46 26 24 22 22 21 16 7 8 8 8 8 9 9 9 9 9 8 9 11 13
29 30 32 32 28 28 28 31 39 38 37 42 44 50 48 34 27 26 25 23 13 8 8 7 8 9 9 9 9 9 9 9 10
27 34 30 24 20 20 21 26 23 24 30 36 39 45 45 53 46 33 32 31 28 24 12 8 8 8 8 9 10 10 10 10 10
23 33 49 42 25 30 26 21 21 24 25 26 30 32 50 62 63 60 41 36 36 35 30 23 13 9 9 9 10 10 11 11 11
27 29 28 35 51 34 33 29 24 23 23 24 28 26 35 59 65 73 65 43 36 35 39 38 30 22 13 10 9 10 11 12 12
5 15 32 32 27 48 56 48 36 37 45 29 27 33 32 38 57 66 70 76 66 54 39 39 41 33 24 15 12 11 10 11 12
12 6 7 21 42 36 32 44 55 48 52 66 47 42 49 46 48 61 64 61 56 49 52 47 42 43 43 36 26 16 13 12 12
26 27 8 6 14 45 50 48 59 66 62 63 76 77 73 69 60 72 82 75 66 34 33 48 50 49 51 50 49 43 30 16 13
22 44 46 23 31 11 14 37 76 80 75 78 81 85 86 78 75 70 74 79 79 69 51 55 48 46 44 45 48 51 52 44 27
23 38 56 50 38 10 7 8 36 74 90 88 94 93 88 87 85 80 77 81 84 83 91 87 79 73 72 77 69 58 56 57 55
43 42 42 44 40 18 31 14 14 28 79 94 98 96 98 97 98 93 84 89 91 88 99 93 97 80 55 34 34 74 80 68 66
24 59 37 46 52 40 32 24 13 16 60 68 97 96 95 97 90 85 87 92 88 99 95 84 66 69 63 41 32 29 60 76 73
23 41 56 62 67 69 72 91 16 21 28 99 74 95 92 97 98 94 98 98 89 92 94 85 94 81 47 34 33 33 41 73 79
30 27 43 54 91 92 95 99 59 26 12 39 97 92 86 93 96 97 92 87 87 88 97 94 89 61 34 28 28 30 25 45 74
25 45 33 39 42 80 85 94 79 61 21 13 24 70 96 95 94 97 96 92 91 93 86 90 74 54 33 30 29 29 27 25 48
36 40 57 73 67 60 65 75 82 53 52 34 34 40 66 92 84 98 97 90 89 95 95 94 72 44 31 34 33 33 27 24 26
50 47 72 93 88 91 97 96 94 71 42 67 66 57 99 94 93 98 96 95 98 97 97 93 55 39 37 38 38 39 36 31 25

GFSFLT1_500_rhum_120.txt.gz
RH
18 14 12 15 14 10 8 6 11 16 14 15 18 17 17 16 10 6 8 11 11 8 6 5 5 6 6 7 8 8 9 10 12
35 32 30 28 25 24 25 26 24 18 18 16 17 20 20 20 18 14 7 7 9 10 9 7 6 6 7 7 7 8 9 10 11
28 36 37 33 32 33 35 36 27 30 35 38 29 24 23 23 22 20 20 12 7 7 8 8 8 7 7 7 8 8 8 9 11
15 19 31 34 34 35 34 34 37 35 35 39 42 42 48 44 27 25 24 23 20 11 7 7 7 8 8 8 8 8 9 9 8
12 14 17 21 28 29 34 34 36 46 45 33 33 34 40 49 56 49 37 30 29 26 20 10 8 8 8 8 9 9 9 9 10
14 19 18 17 22 32 32 26 28 27 24 25 23 23 31 36 45 45 46 47 35 33 31 27 18 10 8 8 8 9 9 10 10
13 15 18 21 22 21 37 43 30 31 28 22 23 23 24 29 33 38 54 59 58 50 38 36 33 27 17 11 9 8 9 10 10
6 8 11 18 23 25 24 28 42 45 33 32 26 23 24 25 30 30 41 54 60 64 56 41 39 38 35 28 19 13 10 9 10
6 6 6 5 7 12 20 27 27 31 50 47 37 31 35 29 27 35 35 39 48 49 55 57 45 43 38 39 32 22 15 12 11
6 6 6 7 6 4 6 12 31 33 30 38 52 55 44 49 41 38 48 50 50 55 53 49 50 42 44 39 40 42 34 26 18
6 7 7 7 28 33 17 15 22 27 44 43 35 50 70 60 58 60 58 65 60 66 74 72 67 41 34 44 46 44 45 45 43
8 7 8 24 25 28 30 22 14 57 45 38 53 58 72 84 70 75 75 78 76 69 71 78 73 65 51 38 40 47 48 49 49
13 14 12 26 44 35 40 52 50 54 49 25 21 71 80 81 70 75 80 86 85 81 76 76 83 80 69 59 44 41 48 58 62
10 11 13 15 36 46 40 49 63 57 55 24 21 32 58 91 86 86 95 99 100 99 85 88 99 93 92 91 95 68 54 40 30
11 8 8 9 24 39 51 52 62 69 64 38 45 43 55 78 96 96 96 96 97 98 100 92 95 94 97 90 86 80 79 43 39
32 18 17 17 12 20 48 65 66 70 66 49 40 39 33 19 99 98 96 96 97 94 94 95 98 96 95 96 86 81 75 45 31
53 41 31 24 18 18 30 66 77 77 84 76 77 62 35 18 87 98 92 93 96 97 97 94 96 95 88 91 92 81 82 54 28
40 50 43 35 30 25 32 36 64 84 95 80 77 89 68 50 58 80 83 94 96 95 97 97 97 96 90 91 89 83 77 43 29
49 49 39 37 35 32 33 41 51 84 92 98 95 98 96 70 34 38 80 86 96 98 96 97 97 94 95 99 96 92 83 49 31
70 52 58 42 34 29 41 44 62 59 70 80 84 92 84 88 84 27 29 75 96 88 90 96 96 96 96 99 98 94 70 39 35

GFSFLT1_500_rhum_126.txt.gz
RH
22 21 25 29 31 32 25 18 17 16 17 13 8 12 16 15 15 16 17 17 12 7 7 8 7 5 4 5 6 6 7 8 9
18 23 23 20 19 27 31 32 33 33 37 33 28 21 14 14 15 17 19 19 19 17 10 7 7 8 6 5 6 6 7 7 8
31 24 20 19 18 16 24 32 33 35 34 35 40 40 31 30 27 22 20 21 23 22 20 17 9 7 8 9 8 7 7 8 8
25 30 30 25 16 12 14 19 23 33 38 44 40 39 37 38 37 36 34 28 29 28 27 25 21 13 8 7 7 8 9 9 9
14 23 30 35 26 24 20 16 17 15 20 38 43 40 44 43 45 39 40 39 41 45 40 31 30 28 22 12 8 7 7 8 9
8 8 11 18 28 25 26 28 23 21 21 26 41 40 51 44 35 27 26 31 37 42 45 46 47 44 36 29 22 14 9 8 8
5 6 6 6 6 6 9 15 22 27 24 24 21 20 30 39 36 29 25 24 25 33 40 46 48 52 52 45 34 30 25 18 12
5 5 5 5 5 5 6 6 7 10 18 23 23 25 26 26 34 44 35 33 25 25 27 32 34 46 55 62 58 48 38 34 26
5 5 5 5 5 5 5 6 6 6 7 11 20 24 29 33 30 32 39 40 36 29 28 28 28 32 44 52 64 61 54 44 40
12 13 12 10 9 7 5 5 5 7 7 26 33 23 25 31 34 44 52 45 44 52 48 42 38 33 33 38 48 52 52 52 47
10 11 12 14 16 16 11 10 7 6 9 27 24 48 54 29 28 39 48 61 61 52 56 55 56 61 56 48 52 52 60 61 51
9 10 10 10 10 8 13 17 16 12 8 8 42 33 42 50 56 38 39 43 60 69 67 82 76 66 66 73 68 68 69 77 76
11 13 13 14 17 18 16 11 11 14 18 13 35 50 53 58 60 64 67 66 59 70 82 94 93 80 78 76 82 91 86 80 78
14 14 16 18 16 17 17 19 19 15 10 22 26 46 56 63 59 71 71 78 92 86 86 87 86 83 87 81 89 97 96 97 90
16 15 15 15 17 17 21 18 17 22 18 12 20 35 61 66 66 72 75 78 88 89 94 83 80 97 96 95 98 98 95 100 98
15 18 22 26 23 25 21 24 27 20 29 24 16 21 50 68 74 94 92 86 86 82 82 85 49 52 89 97 96 97 97 99 97
18 26 33 39 42 39 39 62 46 30 44 44 33 22 24 36 52 98 99 98 96 88 82 81 70 61 95 97 97 97 97 97 97
20 27 35 44 49 37 50 66 64 48 61 67 58 44 29 32 38 42 91 97 97 99 97 90 61 40 63 85 65 94 96 96 96
34 33 36 41 55 57 56 69 65 64 62 90 72 67 50 51 45 52 68 77 95 97 93 90 81 61 49 48 43 97 98 97 96
32 34 41 50 66 64 80 81 85 82 85 85 94 71 63 58 43 50 62 64 66 78 94 96 92 86 84 79 54 96 97 96 96

GFSFLT1_500_rhum_129.txt.gz
RH
43 43 25 22 24 22 20 25 30 27 24 25 23 19 15 12 16 16 16 16 16 16 11 7 7 8 9 6 4 5 6 7 8
26 29 39 35 31 23 21 20 19 31 36 34 33 36 36 26 20 15 15 17 19 19 18 15 9 7 7 9 9 7 6 6 7
13 16 21 28 33 36 34 23 19 16 22 33 44 39 34 37 37 34 28 20 18 20 23 22 18 13 8 7 8 9 9 8 8
15 15 19 20 21 31 38 36 35 29 23 25 31 36 45 40 37 35 38 40 37 29 24 24 25 22 18 10 7 6 7 8 8
9 10 10 10 11 18 32 42 36 31 32 27 26 27 34 42 42 42 41 42 41 43 43 41 30 29 28 25 20 12 7 7 7
6 6 6 6 6 6 6 9 17 31 28 34 33 32 32 42 47 51 47 45 38 32 34 39 50 52 43 38 33 28 21 13 8
5 5 5 5 5 5 4 5 5 5 10 17 24 32 32 38 40 45 53 47 33 26 27 28 33 41 44 49 50 45 38 30 25
6 5 5 5 5 5 5 5 5 5 5 6 7 9 15 28 34 40 33 35 41 34 29 25 27 29 34 40 44 51 54 47 42
8 10 11 11 11 10 10 9 8 7 6 5 7 9 17 10 21 33 34 36 41 44 41 34 30 26 28 30 31 39 47 57 57
12 11 9 8 8 9 9 10 11 14 15 13 8 7 11 20 24 27 35 34 40 44 47 43 40 37 33 33 33 33 39 46 50
6 6 7 7 7 8 9 10 9 9 9 11 17 14 11 14 16 28 49 33 41 44 67 67 55 54 59 57 55 48 42 43 46
7 6 5 5 7 8 9 9 10 10 11 9 9 12 18 12 15 43 32 71 38 47 56 81 79 71 64 67 70 68 71 64 58
4 5 8 7 8 11 13 13 13 12 11 13 15 14 10 15 17 20 50 44 61 56 54 64 70 85 86 84 84 84 78 77 81
10 11 8 8 8 10 13 14 14 15 15 16 14 17 21 16 17 21 48 72 67 63 73 85 88 76 73 87 97 95 96 96 85
8 7 9 9 12 12 14 15 20 22 18 18 17 17 17 25 26 28 26 56 86 82 71 71 78 90 92 88 87 94 98 97 97
5 5 7 12 17 18 20 20 22 26 33 28 27 31 28 20 28 31 28 31 69 88 92 95 96 96 96 84 93 92 98 96 95
10 10 10 9 18 22 24 22 24 32 39 44 52 41 44 41 35 32 31 36 48 71 76 82 74 93 94 96 91 83 77 78 97
16 17 16 14 12 18 29 32 34 35 48 69 73 72 71 62 65 52 69 67 46 89 98 97 97 95 94 92 90 89 82 64 94
31 38 41 35 21 14 15 33 51 46 52 76 83 71 88 75 80 85 53 48 100 60 60 82 97 95 95 97 91 86 76 67 47
28 28 34 42 43 31 20 18 51 53 57 69 94 78 100 97 82 99 92 66 76 97 78 48 46 76 88 81 86 90 90 86 76